Weather History for KAKO - December, 2012

Change the Weather History Date:

Thursday, December 6, 2012

  Actual Average Record
Temperature  
Mean Temperature 39 °F 29 °F  
Max Temperature 51 °F 41 °F 72 °F (1939)
Min Temperature 26 °F 18 °F -20 °F (1972)
Degree Days  
Heating Degree Days 26    
Month to date heating degree days 122  
Cooling Degree Days 0    
Month to date cooling degree days 0  
Moisture  
Dew Point 21 °F    
Average Humidity 55    
Maximum Humidity 70    
Minimum Humidity 39    
Precipitation  
Precipitation 0.00 in 0.02 in 0.22 in (1957)
Month to date precipitation 0.00 0.11  
Year to date precipitation 7.85 16.45  
Sea Level Pressure  
Sea Level Pressure 29.94 in    
Wind  
Wind Speed 14 mph (East)    
Max Wind Speed 28 mph    
Max Gust Speed 33 mph    
Visibility 10 miles    
Events      
T = Trace of Precipitation, MM = Missing Value Source: NWS Daily Summary

Daily Weather History Graph

Daily Weather History Graph

Search for Another Location

Airport or City:

Trip Planner

Search our weather history database for the weather conditions in past years. The results will help you decide how hot, cold, wet, or windy it might be!

Date:

Astronomy

Dec. 06, 2012 Rise Set
Actual Time 7:01 AM MST 4:26 PM MST
Civil Twilight 6:30 AM MST 4:57 PM MST
Nautical Twilight 5:57 AM MST 5:31 PM MST
Astronomical Twilight 5:24 AM MST 6:04 PM MST
Moon No Moon Rise 11:54 AM MST (12/6)
Length of Visible Light 10h 26m
Length of Day
9h 25m
Waning Gibbous, 48% of the Moon is Illuminated
Dec 6
Waning Gibbous
Dec 13
New
Dec 19
First Quarter
Dec 28
Full
Jan 4
Last Quarter

Hourly Weather History & Observations

Time (MST) Temp. Windchill Dew Point Humidity Pressure Visibility Wind Dir Wind Speed Gust Speed Precip Events Conditions
12:53 AM 50.0 °F - 26.1 °F 39% 29.78 in 10.0 mi NNW 13.8 mph - N/A   Clear
1:53 AM 48.0 °F - 26.1 °F 42% 29.80 in 10.0 mi North 19.6 mph - N/A   Clear
2:53 AM 46.0 °F 38.3 °F 28.0 °F 50% 29.83 in 10.0 mi North 20.7 mph - N/A   Clear
3:53 AM 45.0 °F 37.4 °F 28.0 °F 52% 29.84 in 10.0 mi North 18.4 mph - N/A   Partly Cloudy
4:53 AM 44.1 °F 36.5 °F 28.9 °F 55% 29.87 in 10.0 mi NNW 17.3 mph - N/A   Overcast
5:53 AM 39.9 °F 32.1 °F 28.0 °F 63% 29.92 in 10.0 mi NNW 13.8 mph - N/A   Partly Cloudy
6:53 AM 39.0 °F 29.3 °F 30.9 °F 73% 29.96 in 10.0 mi NNE 19.6 mph - N/A   Overcast
7:53 AM 37.9 °F 30.5 °F 24.1 °F 57% 30.01 in 10.0 mi NE 11.5 mph 20.7 mph N/A   Overcast
8:53 AM 37.0 °F 28.1 °F 21.9 °F 54% 30.04 in 10.0 mi ENE 15.0 mph - N/A   Overcast
9:53 AM 39.0 °F 31.8 °F 21.9 °F 50% 30.04 in 10.0 mi ENE 11.5 mph - N/A   Partly Cloudy
10:53 AM 42.1 °F 36.1 °F 23.0 °F 47% 30.02 in 10.0 mi NE 10.4 mph - N/A   Mostly Cloudy
11:53 AM 43.0 °F 39.5 °F 21.0 °F 42% 30.00 in 10.0 mi Variable 5.8 mph 16.1 mph N/A   Mostly Cloudy
12:53 PM 43.0 °F 38.8 °F 21.0 °F 42% 29.96 in 10.0 mi ENE 6.9 mph - N/A   Clear
1:53 PM 44.1 °F 38.6 °F 21.0 °F 40% 29.94 in 10.0 mi SE 10.4 mph - N/A   Clear
2:53 PM 43.0 °F 38.2 °F 19.9 °F 40% 29.93 in 10.0 mi SE 8.1 mph - N/A   Clear
3:53 PM 41.0 °F 35.2 °F 19.0 °F 41% 29.93 in 10.0 mi ESE 9.2 mph - N/A   Clear
4:53 PM 34.0 °F 27.2 °F 18.0 °F 52% 29.96 in 10.0 mi ESE 8.1 mph - N/A   Clear
5:53 PM 30.9 °F 22.8 °F 17.1 °F 57% 29.97 in 10.0 mi SE 9.2 mph - N/A   Clear
6:53 PM 27.0 °F 19.5 °F 15.1 °F 61% 29.99 in 10.0 mi SE 6.9 mph - N/A   Clear
7:53 PM 27.0 °F 18.0 °F 14.0 °F 58% 29.99 in 10.0 mi SE 9.2 mph - N/A   Clear
8:53 PM 28.0 °F 18.1 °F 14.0 °F 56% 30.00 in 10.0 mi SE 11.5 mph - N/A   Clear
9:53 PM 28.9 °F 18.2 °F 12.9 °F 51% 29.98 in 10.0 mi SSE 13.8 mph - N/A   Clear
10:53 PM 28.0 °F 16.5 °F 12.9 °F 53% 29.95 in 10.0 mi SSE 15.0 mph - N/A   Clear
11:53 PM 28.0 °F 16.5 °F 14.0 °F 56% 29.93 in 10.0 mi South 15.0 mph - N/A   Clear